Helicity
53 110 115 77 88 114 128 131 128 102 58 65 47 25 49 47 11 -8 77 173 187 100 95 132 125 174 256 227 222 197 235 182 197 237 327 314 255 236 194 144 138 159 235 253
92 123 84 68 77 80 96 103 98 68 60 69 84 107 63 49 55 -73 -0 54 97 105 81 111 159 300 308 294 247 176 193 189 154 176 210 272 266 255 220 208 143 162 200 223
104 56 75 50 64 87 69 116 105 93 84 61 86 97 150 148 88 -13 -22 -0 10 111 106 212 290 387 415 383 276 202 156 138 127 112 168 249 313 316 263 219 162 112 173 148
77 85 115 110 137 139 125 68 79 91 101 130 75 171 84 128 91 60 -16 -22 54 67 77 233 175 289 375 322 265 198 132 108 117 114 147 207 235 294 310 297 208 109 122 135
89 87 81 104 79 88 81 46 127 116 121 161 150 226 -81 69 123 115 41 97 47 106 83 243 398 342 233 193 202 144 85 107 77 90 150 153 197 260 323 328 256 133 130 104
80 61 73 68 60 52 38 101 94 138 137 186 160 200 84 71 99 106 23 71 46 190 34 307 347 190 202 197 153 143 85 94 95 102 75 97 101 164 204 198 163 134 149 131
113 122 105 82 130 74 133 201 199 170 256 235 171 207 174 182 63 7 8 65 148 384 404 267 351 314 166 130 101 105 76 88 71 106 62 52 86 95 130 118 117 116 123 122
186 165 256 99 123 182 147 118 124 199 196 215 135 164 117 76 21 106 19 170 357 344 384 308 271 320 213 164 72 33 52 81 109 86 43 27 55 59 84 96 113 106 115 121
203 222 135 110 94 109 149 159 44 57 82 67 243 156 50 -10 63 107 34 290 367 278 327 217 159 138 173 112 52 28 24 50 39 14 52 58 70 57 45 37 91 123 136 131
231 291 193 154 69 53 128 86 83 38 79 49 67 145 82 27 81 389 394 443 338 280 248 222 215 170 119 77 60 24 -13 -19 20 36 18 28 68 69 75 20 46 105 98 126
123 156 165 115 42 44 123 75 58 52 36 50 27 47 89 169 178 158 334 397 480 229 280 269 150 92 57 76 106 78 54 15 24 5 8 27 29 77 74 64 19 47 115 133
89 49 28 -76 -23 12 -0 44 10 38 78 86 21 -8 5 49 245 145 277 210 431 173 265 183 106 38 32 151 146 104 43 28 -2 -13 -5 7 22 47 89 68 -24 75 103 150
36 59 -15 -69 -21 59 82 55 -51 -45 -25 52 94 64 -54 -26 207 215 390 186 9 28 49 87 103 115 250 239 157 71 29 9 -23 -59 -46 -6 15 20 74 93 7 50 124 169
73 76 36 16 20 48 1 105 97 -22 23 34 18 5 -112 -76 255 272 187 122 237 19 38 48 73 166 161 162 168 112 54 -0 -40 -78 -62 -29 -8 18 39 87 85 15 87 176
45 -8 3 -1 -1 12 23 59 9 -3 13 67 46 -12 -59 -35 27 287 205 242 242 122 158 10 56 72 95 115 88 38 22 -31 -46 -33 -24 -19 -9 -13 29 55 108 87 62 193
49 46 21 8 46 39 6 15 39 62 60 -30 -26 -51 -66 -39 14 10 -0 67 48 157 163 166 137 109 67 45 30 -2 -42 -50 -33 -10 11 7 -4 -21 13 40 126 90 80 119
73 51 8 15 2 13 -2 43 39 103 21 34 -8 63 48 -16 45 55 74 58 59 72 90 85 100 66 43 33 36 -15 -34 -15 -2 4 21 14 -4 -16 7 53 72 74 108 196
28 8 -10 20 -5 -4 30 56 48 101 139 181 87 124 122 79 55 57 56 76 74 54 31 7 14 5 17 29 23 10 19 28 36 29 28 1 -3 -7 5 49 32 168 214 296
-39 -14 -1 7 20 49 -20 67 45 98 44 126 54 92 84 105 50 127 102 42 77 105 84 77 59 5 -5 -21 -15 4 36 42 36 39 13 3 -1 20 21 51 41 187 226 351
4 29 -21 1 7 6 26 182 24 8 33 65 33 52 127 113 104 98 137 137 185 164 146 149 144 77 -38 -36 -30 -10 32 28 38 49 13 -4 11 16 26 34 63 57 195 416
56 21 49 18 -4 23 50 150 112 24 -2 73 60 36 32 37 50 98 60 34 44 52 63 77 96 104 51 13 -11 4 9 11 29 41 9 -14 22 41 41 28 -6 58 191 562
-18 35 67 18 -11 8 -18 -30 -0 6 -7 27 52 20 10 19 -0 -2 9 17 12 -1 9 19 23 57 61 41 24 21 27 21 34 37 16 15 55 53 48 55 27 139 262 417
-16 -0 6 9 -10 -26 -8 -73 -21 24 50 21 10 -2 25 -4 7 19 12 9 13 14 9 6 -1 6 12 19 11 22 44 33 46 40 19 22 41 48 50 8 80 191 265 244
29 34 22 9 -40 -38 -57 -46 -19 20 13 13 -9 -8 -9 -5 -1 7 -0 -5 10 15 18 15 6 3 11 24 45 37 39 44 36 36 -4 21 33 38 47 37 99 179 213 254
63 39 17 4 -7 -16 -53 -29 -1 21 -2 -15 -15 2 10 5 15 17 26 22 26 38 35 25 23 22 21 17 20 41 53 64 47 46 34 36 46 47 50 90 92 179 225 181
26 43 -32 -17 -15 7 1 3 -20 -14 -10 1 13 14 16 8 13 18 22 18 17 20 28 32 29 26 19 -3 -5 -19 -0 -1 19 59 31 40 29 45 78 83 152 251 187 192
Wind_Speed
42 38 41 45 44 49 57 62 69 69 90 86 88 82 89 84 86 86 84 73 69 50 35 35 42 36 29 27 27 27 27 26 28 30 33 46 38 38 32 30 30 22 22 22
54 43 46 50 53 56 58 60 65 76 79 80 84 93 98 88 90 82 83 75 73 69 47 35 35 33 30 32 34 36 42 49 45 38 34 45 49 48 34 32 26 28 23 23
62 61 71 69 68 67 63 62 68 70 77 83 87 96 87 75 77 93 89 82 69 66 63 37 25 28 30 34 37 42 51 61 67 72 54 44 45 50 38 33 30 29 29 24
56 56 72 72 74 69 77 72 77 82 85 84 66 94 89 78 78 79 87 84 72 62 47 28 30 28 26 29 33 40 51 59 60 66 51 38 42 46 47 34 28 24 23 25
61 72 70 74 73 78 86 94 88 84 87 88 88 81 122 63 73 63 77 86 75 46 22 17 14 14 19 26 30 40 48 53 54 53 46 49 48 43 40 34 31 24 23 21
68 63 59 65 74 80 80 86 86 79 79 92 83 78 109 92 83 73 69 73 73 53 53 28 13 5 14 24 33 42 48 50 58 51 55 56 53 46 41 38 38 32 28 24
76 70 65 56 72 74 75 77 86 88 79 86 76 85 88 70 67 70 71 59 33 30 26 14 13 12 18 28 35 38 47 52 50 47 52 56 60 49 42 45 42 32 32 28
74 82 68 73 73 75 76 63 66 74 73 75 68 77 89 83 83 82 71 20 7 18 18 16 10 16 20 25 31 35 42 44 47 53 57 57 60 58 56 50 46 33 27 25
83 80 80 76 77 71 73 72 54 71 73 73 67 64 77 82 86 70 51 16 16 13 22 16 12 16 22 22 27 34 40 48 54 56 57 61 62 63 64 59 44 34 26 20
71 93 76 77 77 73 63 57 66 54 52 54 53 54 60 70 50 30 18 18 12 16 21 13 14 14 17 21 27 33 40 46 52 57 61 64 66 67 63 59 50 34 28 23
68 71 81 71 62 66 66 58 49 57 62 61 52 37 52 51 59 32 37 34 16 25 22 21 21 18 17 23 27 33 40 46 54 58 63 66 69 70 66 61 57 44 33 25
56 58 71 64 64 60 51 43 42 50 51 52 54 54 54 54 48 30 41 28 20 25 19 22 24 27 24 23 30 38 43 48 55 61 66 68 69 68 68 65 61 58 41 30
52 46 64 50 41 44 45 52 50 51 44 46 53 59 61 56 52 42 24 30 20 23 23 29 32 24 22 27 37 42 47 52 59 66 69 70 70 69 70 73 68 62 52 34
48 40 44 44 55 56 57 60 67 59 55 54 54 63 58 56 50 44 40 38 47 36 32 30 22 26 29 35 42 48 52 60 67 70 70 71 70 71 73 75 75 70 56 37
40 45 55 52 58 61 63 65 59 62 64 59 61 58 53 51 45 33 43 56 56 33 32 25 29 34 39 44 48 55 62 69 73 73 73 74 73 73 73 74 75 70 58 37
34 42 48 58 54 59 62 62 57 54 63 65 66 59 43 40 45 41 43 43 34 33 34 37 42 43 46 51 58 66 74 78 79 77 75 75 75 75 74 73 73 71 55 42
18 39 53 49 53 59 48 43 50 53 40 47 49 43 37 37 40 34 38 41 41 44 44 46 51 53 57 62 68 76 81 83 81 79 78 75 76 77 76 74 74 73 52 42
43 40 13 12 36 36 34 45 41 43 44 42 39 43 48 49 44 40 45 47 48 51 55 57 62 65 68 73 78 83 83 81 83 83 79 78 78 78 76 74 74 71 41 37
35 17 14 23 23 30 39 30 29 44 48 51 53 57 56 59 49 47 52 51 54 60 64 68 70 71 74 75 77 80 80 81 78 81 80 79 78 80 77 75 76 69 44 37
33 32 9 24 28 30 19 32 55 52 39 48 55 59 55 53 51 58 58 56 57 59 61 65 68 68 66 68 69 76 78 79 82 81 81 79 80 79 80 78 78 74 53 41
28 26 27 25 13 32 58 61 40 34 41 57 48 52 50 45 42 46 48 49 49 52 59 61 61 64 64 67 71 74 76 79 80 80 80 79 79 79 80 81 78 63 53 40
39 35 32 38 36 32 59 40 26 17 34 40 38 33 31 38 40 40 45 48 51 54 58 61 61 62 64 69 72 74 76 78 80 80 79 77 77 76 75 75 65 53 46 47
16 19 24 15 39 49 47 28 13 17 12 26 28 28 33 35 42 44 49 51 55 60 62 64 65 67 67 70 72 75 77 77 79 78 77 75 73 70 69 68 58 54 55 60
22 24 15 14 16 36 31 42 26 18 21 27 33 40 41 40 47 50 53 58 62 64 66 68 69 70 71 72 72 73 77 77 76 76 72 69 65 63 62 62 57 54 57 55
28 31 16 14 26 19 29 24 27 26 31 36 44 48 51 50 54 58 61 64 65 67 67 68 70 72 73 73 72 76 76 74 73 69 66 61 57 54 54 52 53 49 49 59
37 32 19 26 31 21 20 22 27 38 43 44 51 55 58 60 61 63 62 64 66 68 68 67 69 71 71 69 70 71 70 65 64 62 57 53 51 48 48 46 42 32 30 34
Wind_Direction
328 318 307 308 302 297 300 298 296 298 292 292 289 288 285 287 283 283 286 290 297 288 276 262 263 265 264 271 276 279 286 292 290 285 276 276 275 274 274 268 259 267 240 220
323 311 311 309 304 300 301 298 299 300 296 294 291 286 284 284 282 281 282 286 290 287 281 269 265 258 260 266 274 284 289 290 293 293 286 283 278 277 271 271 257 252 250 228
318 314 313 311 310 308 302 301 300 300 299 294 292 288 287 288 286 277 277 282 286 288 288 271 257 257 262 268 274 284 288 288 287 285 287 287 285 281 278 274 265 253 249 230
318 320 313 311 310 310 303 306 303 300 297 293 300 291 287 290 287 285 274 277 281 279 292 260 261 271 269 276 285 294 297 291 288 284 285 278 279 279 277 273 271 260 251 229
313 315 312 307 307 306 301 298 299 297 294 294 287 289 270 294 288 288 283 276 274 259 268 297 272 256 278 285 297 302 298 293 289 291 296 288 283 282 278 273 268 256 259 230
313 318 309 311 312 308 307 299 296 295 292 284 285 287 281 284 287 290 285 282 268 259 261 254 248 270 294 302 304 306 299 299 287 293 293 290 287 282 278 277 274 267 260 237
318 315 320 326 320 319 315 314 299 292 285 283 287 281 278 285 292 292 287 294 277 220 200 220 230 266 302 306 309 313 306 300 299 296 301 295 284 282 279 279 278 269 261 242
319 315 323 320 324 319 314 313 303 297 293 289 290 286 284 285 281 280 280 276 186 179 198 215 253 285 305 313 311 310 314 313 313 301 296 297 287 283 281 280 277 270 262 239
316 311 316 315 316 318 311 304 306 300 294 293 290 292 296 287 276 273 269 199 181 196 228 230 260 296 298 306 311 313 320 316 310 304 307 296 291 285 279 279 277 273 258 245
323 313 318 317 317 306 307 309 298 293 302 293 298 292 296 286 298 292 260 204 216 222 244 261 287 303 302 304 313 316 318 319 316 311 305 301 292 286 284 279 278 269 258 243
326 318 316 320 319 311 305 301 300 293 285 286 298 304 309 302 281 283 269 267 241 250 260 285 283 300 307 316 315 320 323 319 317 317 313 306 296 285 284 281 276 273 260 239
343 333 324 324 316 305 301 303 305 294 292 282 275 282 314 308 299 280 283 272 250 277 268 287 299 301 302 317 325 329 324 319 316 315 313 306 301 290 284 280 276 270 263 252
346 340 332 335 334 310 310 284 268 288 304 292 276 269 302 304 294 267 253 268 269 279 283 286 302 323 328 325 328 326 323 319 316 314 310 306 301 293 281 275 273 270 267 252
347 344 335 318 298 272 296 277 270 272 283 287 282 271 282 299 295 268 271 289 277 293 298 304 322 321 321 322 328 322 320 318 314 310 307 302 298 299 284 276 271 268 268 252
360 349 307 281 271 274 284 283 285 279 274 275 265 271 286 302 297 274 298 292 291 296 307 318 317 318 315 317 322 317 315 313 313 310 305 301 297 297 290 279 273 267 267 255
16 344 296 289 279 284 297 291 295 287 276 266 260 270 290 302 285 285 297 306 332 330 326 321 320 320 317 314 316 315 310 307 308 307 304 300 296 294 294 282 277 269 264 255
24 348 314 318 300 295 316 316 296 295 303 284 274 288 294 290 309 311 302 312 309 314 317 317 315 315 313 313 315 312 310 308 305 303 302 301 296 292 295 285 277 269 264 254
324 0 117 0 266 325 336 319 304 306 330 313 304 303 296 296 299 315 319 315 303 305 308 309 307 306 309 311 312 312 311 313 308 304 303 299 296 291 290 285 275 272 262 240
295 179 186 163 234 217 305 279 259 298 303 320 299 295 300 303 296 303 318 319 315 309 308 306 305 306 309 311 315 313 313 315 316 308 302 298 295 290 285 281 276 279 258 244
304 5 223 170 207 298 259 282 287 284 307 310 313 313 308 316 291 295 310 315 315 318 320 318 316 312 317 319 324 319 319 316 311 310 303 298 292 288 283 282 276 271 264 244
290 284 288 291 221 13 330 316 304 317 274 299 294 317 328 318 324 327 338 335 333 332 331 331 329 319 318 323 325 325 322 316 314 310 304 300 292 286 283 279 276 271 263 241
316 302 289 306 311 282 328 315 323 220 269 287 289 300 316 342 344 337 339 342 340 333 335 334 332 330 325 324 324 324 322 317 312 308 304 299 294 287 286 284 284 269 262 239
197 259 264 241 331 334 345 284 252 252 207 277 296 300 310 316 329 330 336 331 336 336 333 330 329 326 325 326 323 320 320 319 311 305 303 299 293 291 289 288 287 272 254 245
74 90 135 190 209 293 297 328 290 268 278 295 309 321 321 314 324 325 329 330 333 333 331 332 333 332 328 328 327 322 319 319 311 304 301 300 297 296 295 292 286 273 252 244
40 33 96 138 263 249 288 280 284 284 302 310 328 334 335 328 335 339 340 337 338 337 338 341 337 336 332 326 325 324 318 314 309 304 303 298 297 301 300 304 292 273 260 240
3 31 263 244 275 225 218 257 285 312 325 327 339 343 358 357 356 354 355 351 347 345 341 340 340 337 330 323 324 323 322 316 310 310 309 303 299 301 304 300 304 301 263 248